This demonstration page uses our WeatherBlox Daily Observations layout. Learn more.

Left ArrowRight Arrow

Hourly Observations for May 8, 2020

Temp ( °F °C ) Dew Point ( °F °C ) Humidity (%) Winds ( mph kmh ) Pressure ( in mb ) Visibility ( mi km ) Precip ( " mm )
12:10 am 00:10 Cloudy 46 8 45 7 93 93 NNE 22 35 30.09 1019 10 16 0.00 0.00
12:56 am 00:56 Cloudy with Light Rain 43 6.1 42 5.6 97 97 N 28 44 30.14 1021 7 11 0.01 0.25
1:16 am 01:16 Cloudy with Light Rain 43 6 41 5 93 93 NNE 29 46 30.19 1022 10 16 0.00 0.00
1:56 am 01:56 Cloudy with Light Rain 42 5.6 40 4.4 92 92 N 25 41 30.18 1022 10 16 0.00 0.00
2:15 am 02:15 Cloudy with Light Rain 43 6 39 4 87 87 N 24 39 30.23 1024 10 16 0.00 0.00
2:36 am 02:36 Cloudy with Light Rain 43 6 39 4 87 87 N 24 39 30.24 1024 10 16 0.00 0.00
2:56 am 02:56 Cloudy 43 6.1 40 4.4 89 89 N 21 33 30.21 1023 10 16 0.00 0.00
3:56 am 03:56 Mostly Cloudy 42 5.6 39 3.9 89 89 N 22 35 30.22 1023 10 16 0.00 0.00
4:25 am 04:25 Partly Cloudy 41 5 36 2 81 81 N 23 37 30.30 1026 10 16 0.00 0.00
4:56 am 04:56 Clear 39 3.9 34 1.1 82 82 N 18 30 30.28 1025 10 16 0.00 0.00
5:56 am 05:56 Clear 37 2.8 31 -0.6 79 79 N 15 24 30.31 1027 10 16 0.00 0.00
6:56 am 06:56 Sunny 35 1.7 29 -1.7 78 78 N 17 28 30.33 1027 10 16 0.00 0.00
7:56 am 07:56 Sunny 38 3.3 29 -1.7 70 70 N 15 24 30.37 1029 10 16 0.00 0.00
8:56 am 08:56 Sunny 40 4.4 28 -2.2 63 63 N 15 24 30.38 1029 10 16 0.00 0.00
9:56 am 09:56 Sunny 44 6.7 27 -2.8 51 51 NNE 15 24 30.39 1029 10 16 0.00 0.00
10:56 am 10:56 Sunny 47 8.3 26 -3.3 44 44 N 17 28 30.40 1029 10 16 0.00 0.00
11:56 am 11:56 Sunny 49 9.4 24 -4.4 38 38 N 15 24 30.39 1029 10 16 0.00 0.00
12:56 pm 12:56 Sunny 51 10.6 26 -3.3 38 38 N 16 26 30.37 1029 10 16 0.00 0.00
1:56 pm 13:56 Sunny 54 12.2 24 -4.4 31 31 NNE 14 22 30.35 1028 10 16 0.00 0.00
2:56 pm 14:56 Sunny 56 13.3 27 -2.8 33 33 NNE 12 19 30.32 1027 10 16 0.00 0.00
3:56 pm 15:56 Sunny 56 13.3 24 -4.4 29 29 N 9 15 30.31 1026 10 16 0.00 0.00
4:56 pm 16:56 Sunny 57 13.9 24 -4.4 28 28 N 10 17 30.29 1026 10 16 0.00 0.00
5:56 pm 17:56 Sunny 57 13.9 26 -3.3 30 30 NNW 6 9 30.27 1025 10 16 0.00 0.00
6:56 pm 18:56 Sunny 57 13.9 26 -3.3 30 30 N 7 11 30.25 1024 10 16 0.00 0.00
7:56 pm 19:56 Sunny 55 12.8 28 -2.2 35 35 NE 5 7 30.24 1024 10 16 0.00 0.00
8:56 pm 20:56 Clear 49 9.4 31 -0.6 50 50 E 6 9 30.25 1024 10 16 0.00 0.00
9:56 pm 21:56 Clear 46 7.8 31 -0.6 56 56 ESE 7 11 30.26 1025 10 16 0.00 0.00
10:56 pm 22:56 Clear 44 6.7 31 -0.6 60 60 ESE 7 11 30.27 1025 10 16 0.00 0.00
11:56 pm 23:56 Clear 44 6.7 30 -1.1 58 58 S 7 11 30.27 1025 10 16 0.00 0.00

Powered by AerisWeather